SCP
-0 0 0 0 0 0 0 0 0 0 0 0 0 0 0 0 0 0 -0 0 0 1 1 1 1 1 1 1 0 0 0 0 0 0 0 0 0 0 0 0 0 0 0
-0 0 0 0 0 0 -0 0 0 0 0 0 0 0 0 0 0 0 0 0 0 0 0 0 0 0 0 0 0 0 0 0 0 0 0 0 0 0 0 0 0 0 0
-0 0 0 0 0 -0 -0 -0 0 0 0 0 0 0 0 0 0 0 0 0 0 0 0 0 0 0 0 0 0 0 0 0 0 0 0 0 0 0 0 0 0 0 0
0 -0 0 0 0 -0 -0 -0 -0 0 0 0 0 0 0 0 0 0 0 0 0 0 0 0 0 0 0 0 0 0 0 0 0 0 0 0 0 0 0 0 0 0 0
0 0 -0 0 0 -0 -0 -0 0 -0 -0 0 0 0 0 0 0 0 0 0 0 0 0 0 0 0 0 0 0 0 0 0 0 0 0 0 0 0 0 0 0 0 0
0 0 0 0 0 0 0 0 -0 -0 -0 -0 -0 -0 0 0 0 0 0 0 0 0 0 0 0 0 0 0 0 0 0 0 0 0 0 0 0 0 0 0 0 0 0
0 0 0 0 0 0 -0 -0 -0 -0 -0 -0 -0 -0 -0 0 0 0 0 0 0 0 0 0 0 0 0 0 0 0 0 0 0 0 0 0 0 0 0 0 0 0 0
-0 -0 -0 -0 0 0 -0 -0 -0 -0 -0 -0 -0 -0 -0 0 -0 0 0 0 0 0 0 0 0 0 0 0 0 0 0 0 0 0 0 0 0 0 0 0 0 0 0
-0 -0 -0 -0 -0 -0 -0 -0 -0 -0 -0 -0 -0 -0 -0 -0 -0 0 0 0 0 0 0 0 0 0 0 0 0 0 0 0 0 0 0 0 0 0 0 0 0 0 0
-0 -0 0 0 0 -0 0 0 0 0 0 -0 0 -0 -0 -0 -0 -0 0 0 0 0 0 0 0 0 0 0 0 0 0 0 0 0 0 0 0 0 0 0 0 0 0
-0 0 0 0 0 0 0 0 -0 -0 -0 -0 0 0 -0 -0 -0 -0 -0 0 0 0 0 0 0 0 0 0 0 0 0 0 0 0 0 0 0 0 0 0 0 0 0
0 -0 0 0 0 0 0 -0 -0 -0 -0 -0 -0 -0 -0 -0 -0 -0 -0 0 0 0 0 0 0 0 0 0 0 0 0 0 0 0 0 0 0 0 0 0 0 0 0
0 -0 -0 -0 -0 -0 -0 -0 -0 -0 -0 -0 -0 -0 -0 -0 -0 0 0 0 0 -0 0 0 0 0 0 0 0 0 0 0 0 0 0 0 0 0 0 0 0 0 0
0 -0 -0 -0 -0 -0 -0 -0 -0 -0 -0 -0 -0 -0 -0 -0 -0 0 -0 -0 0 0 0 0 0 0 0 0 0 0 0 0 0 0 0 0 0 0 0 0 0 0 0
-0 -0 -0 -0 -0 -0 -0 -0 -0 -0 -0 -0 -0 -0 -0 -0 0 0 0 0 0 0 -0 -0 0 0 0 0 0 0 0 0 0 0 0 0 0 0 0 0 0 0 0
0 -0 -0 -0 -0 -0 -0 0 0 0 0 0 0 0 0 0 0 0 0 0 0 0 -0 0 0 0 0 0 0 0 0 0 0 0 0 0 0 0 0 0 0 0 0
0 0 -0 0 -0 -0 -0 -0 0 0 0 0 0 0 0 0 0 0 0 0 0 0 0 0 0 0 0 0 0 0 0 0 0 0 0 0 0 0 0 0 0 0 0
0 0 -0 -0 -0 0 0 0 0 0 0 0 0 0 0 0 0 0 0 0 0 0 0 0 0 0 0 0 0 0 0 0 0 0 0 0 0 0 0 0 0 0 0
-0 -0 -0 -0 0 0 0 0 0 0 0 0 0 0 0 0 0 0 0 0 0 0 0 0 0 0 0 0 0 0 0 0 0 0 0 0 0 0 0 0 0 0 0
0 0 0 0 0 0 0 0 0 0 0 0 0 0 0 0 0 0 0 0 0 0 0 0 0 0 0 0 0 0 0 0 0 0 0 0 0 0 0 0 0 0 0
0 0 0 0 0 0 0 0 0 0 0 0 0 0 0 0 0 0 0 0 0 0 0 0 0 0 0 0 0 0 0 0 0 0 0 0 0 0 0 0 0 0 0
0 0 0 0 0 0 0 0 0 0 0 0 0 0 0 0 0 0 0 0 0 0 0 0 0 0 0 0 0 0 0 0 0 0 0 0 0 0 0 0 0 0 0
0 0 0 0 0 0 0 0 0 0 0 0 0 0 0 0 0 0 0 0 0 0 0 0 0 0 0 0 0 0 0 0 0 0 0 0 0 0 0 0 0 0 0
0 0 0 0 0 0 0 0 0 0 0 0 0 0 0 0 0 0 0 0 0 0 0 0 0 0 0 0 0 0 0 0 0 0 0 0 0 0 0 0 0 0 0
0 0 0 0 0 0 0 0 0 0 0 0 0 0 0 0 0 0 0 0 0 0 0 0 0 0 0 0 0 0 0 0 0 0 0 0 0 0 0 0 0 0 0
0 0 0 0 0 0 0 0 0 0 0 0 0 0 0 0 0 0 0 0 0 0 0 0 0 0 0 0 0 0 0 0 0 0 0 0 0 0 0 0 0 0 0
Wind_Speed_500mb
74 74 70 60 55 35 20 16 3 17 33 40 41 38 42 44 43 58 67 90 63 76 90 93 91 92 82 81 81 76 74 71 67 68 59 54 52 50 51 48 54 51 47
77 77 75 72 66 58 43 31 40 31 25 35 33 32 23 29 43 47 49 61 79 70 71 85 76 76 78 86 79 79 77 73 75 76 72 65 63 64 56 54 53 54 57
76 80 83 88 75 72 70 58 57 59 65 65 65 62 52 37 26 36 39 46 50 59 82 69 78 80 86 80 71 79 84 85 80 75 78 57 74 56 52 43 52 54 58
74 77 83 87 87 75 72 74 76 75 78 83 75 73 73 73 72 62 40 19 39 21 37 26 40 42 64 60 69 65 72 63 55 56 69 76 65 54 47 50 56 59 66
72 74 72 73 79 83 82 75 80 85 93 93 94 89 80 69 70 68 55 45 15 31 36 30 25 20 21 23 29 24 33 42 34 50 41 47 41 35 37 43 55 65 64
72 72 70 71 70 74 78 79 85 88 92 96 100 94 91 83 71 62 59 58 50 36 39 38 32 22 19 34 22 11 4 10 13 22 29 31 36 42 49 44 44 48 56
67 70 71 72 74 78 80 82 85 85 83 83 85 84 83 75 66 65 54 53 50 41 40 39 36 30 28 24 24 23 16 18 17 15 16 23 26 31 39 43 43 47 48
63 68 71 72 74 76 76 80 83 83 84 77 76 76 73 73 60 54 63 58 44 41 41 40 36 34 34 30 28 16 19 19 17 15 14 17 20 24 29 35 41 49 53
59 63 68 70 72 73 78 79 78 77 76 74 70 70 70 69 64 67 61 54 48 48 47 44 43 40 35 27 23 25 25 22 20 19 20 21 22 25 27 30 34 40 41
52 56 60 64 67 69 68 68 67 70 71 69 70 68 68 69 65 61 58 51 47 47 45 46 47 42 38 35 31 29 25 23 18 13 16 20 22 24 25 26 28 30 32
41 45 50 55 60 62 63 63 62 62 62 66 68 69 69 66 62 56 51 48 50 47 46 45 45 45 40 35 30 28 26 24 22 21 20 20 20 22 24 25 26 27 28
35 40 45 49 52 53 53 56 58 62 64 69 72 74 75 71 61 57 49 46 42 41 43 41 41 39 38 39 36 32 27 24 23 22 23 24 24 24 23 26 27 29 30
30 36 41 44 48 51 54 56 58 61 69 73 76 77 73 71 67 62 56 50 41 38 36 36 34 35 35 34 35 37 37 36 35 32 31 30 29 32 31 27 27 29 29
31 36 39 43 45 48 49 52 53 55 59 63 68 66 64 64 66 65 63 60 55 51 45 37 31 29 28 28 28 31 32 32 33 32 31 29 29 28 29 31 28 25 25
28 30 33 36 39 41 45 48 49 47 47 53 59 60 62 62 59 57 62 61 58 55 51 48 50 51 48 44 40 37 33 31 33 33 35 37 35 33 30 30 30 30 29
26 30 34 36 38 41 41 38 35 30 31 37 40 44 44 42 47 54 60 57 58 58 56 55 55 55 56 56 54 48 41 38 35 35 35 35 35 37 38 34 29 32 33
25 26 27 28 32 36 38 39 38 29 26 30 34 38 39 36 34 32 41 50 53 53 54 53 52 52 52 50 50 49 48 42 37 35 34 34 36 33 35 35 33 30 29
19 20 20 22 27 31 33 33 31 34 38 39 39 43 44 44 41 38 45 50 55 57 56 55 54 56 56 53 50 49 48 46 44 39 36 33 33 34 34 32 31 31 35
15 20 22 24 25 26 27 28 30 33 34 35 37 37 39 38 39 40 44 48 50 50 49 49 52 54 55 55 53 48 46 45 46 45 38 33 30 30 27 28 29 27 28
16 23 29 32 30 26 23 24 25 25 24 25 28 31 33 33 35 37 36 39 41 44 46 47 50 53 56 56 56 53 49 45 41 38 33 29 25 24 26 29 31 32 28
23 30 37 38 33 30 28 27 29 30 30 30 29 28 28 29 28 29 32 34 33 35 36 39 44 48 51 53 52 53 52 49 44 42 37 29 25 23 23 24 27 28 30
32 39 42 38 32 32 34 35 36 37 38 41 45 44 38 35 35 36 35 34 34 34 33 36 40 40 43 46 47 52 54 51 45 43 37 31 26 24 26 27 28 29 32
36 39 36 31 31 33 33 35 37 40 43 44 44 45 43 42 44 45 45 41 35 32 34 36 39 37 39 40 44 50 53 51 49 48 40 30 25 24 24 26 29 28 29
36 37 36 36 38 39 41 43 45 45 47 48 47 47 47 46 46 46 43 40 38 33 32 37 36 36 37 38 41 47 46 46 47 43 38 32 27 25 25 25 26 28 29
37 37 35 38 40 41 41 42 43 44 45 46 48 49 49 48 49 49 48 47 46 44 40 34 34 36 36 37 40 41 41 44 43 42 33 28 28 27 27 26 25 23 23
37 37 38 39 39 40 43 45 46 46 47 48 47 46 46 46 46 46 47 47 44 40 37 37 31 33 36 37 37 37 39 38 41 38 32 27 28 27 26 26 22 20 18
Wind_Direction_500mb
24 25 23 23 29 33 9 11 84 205 217 213 218 232 237 241 237 229 218 226 236 242 237 231 230 231 235 235 234 236 235 239 244 247 240 247 246 261 277 270 253 247 249
31 33 32 32 39 50 53 59 59 96 188 191 171 140 155 192 200 172 178 204 223 228 222 233 229 232 235 237 236 239 239 235 236 242 244 246 255 270 277 257 258 254 260
32 35 39 41 37 49 52 58 65 68 96 107 110 104 98 102 138 171 153 152 176 205 210 208 222 226 227 227 235 238 237 238 239 238 247 251 252 253 263 258 254 257 264
35 37 39 43 50 43 47 62 65 67 77 93 96 95 93 93 89 84 85 101 71 91 177 149 179 204 226 227 224 220 230 229 225 223 236 244 251 258 259 262 264 264 268
40 44 45 45 49 56 53 54 61 68 75 78 83 83 83 83 80 82 89 92 55 39 49 77 85 89 141 196 215 247 261 238 219 231 232 222 233 250 243 258 258 264 274
43 44 47 52 57 58 61 56 58 62 65 69 79 82 81 78 77 80 82 80 81 69 64 70 75 62 105 82 81 172 265 262 200 230 238 254 251 257 258 248 256 262 270
43 45 47 49 50 53 55 57 56 59 63 65 69 71 73 78 83 86 88 76 68 68 63 55 49 49 32 27 27 27 354 2 351 328 281 283 271 271 269 266 268 267 262
41 43 45 47 50 50 52 55 55 56 58 59 64 70 72 73 76 80 79 80 83 76 75 71 71 71 64 51 42 27 27 20 358 339 317 298 288 279 284 288 283 276 271
35 38 41 43 45 46 47 47 50 52 55 57 58 62 67 65 61 60 64 67 64 59 55 54 52 52 54 54 43 44 38 34 25 11 3 355 340 329 314 298 293 290 286
30 33 37 39 41 46 48 49 50 52 55 55 56 55 57 57 54 54 53 55 53 49 44 42 44 41 34 32 29 28 26 21 21 11 359 350 347 341 327 322 318 313 308
27 31 35 39 41 40 44 45 47 50 51 50 52 53 50 50 48 49 48 44 41 36 34 29 31 26 22 18 14 12 13 3 349 349 347 345 343 335 330 330 325 323 314
28 30 35 35 37 36 35 36 37 39 40 41 40 40 40 42 43 47 48 43 38 31 29 20 18 10 6 2 4 7 1 353 349 348 343 342 338 334 335 332 330 325 316
28 32 33 33 32 31 30 30 30 30 29 29 31 34 36 31 33 34 33 37 36 32 28 17 7 0 358 354 355 350 347 345 344 343 346 343 341 334 332 329 326 324 317
27 28 28 29 27 25 25 28 26 25 22 22 24 28 29 27 22 23 21 17 18 16 18 15 6 3 1 357 351 351 351 350 346 343 339 335 330 324 326 326 323 319 317
33 27 22 19 19 22 20 17 19 21 19 17 18 16 18 19 18 18 16 16 11 5 358 353 355 357 358 358 357 355 350 343 341 339 334 334 333 330 333 329 325 322 323
28 23 18 14 13 13 14 17 18 23 12 9 11 12 12 16 11 11 8 6 2 1 355 357 355 353 352 352 351 350 347 342 339 338 337 334 332 335 332 329 330 326 323
19 19 17 14 13 11 11 12 10 14 8 3 4 7 12 10 6 10 8 8 4 0 5 5 1 357 352 349 344 342 341 337 332 326 326 330 332 331 330 332 333 331 325
18 21 18 9 9 13 16 14 9 9 7 5 5 2 359 358 359 353 350 350 355 359 2 0 358 355 353 349 343 338 332 330 329 325 323 324 324 324 328 332 332 331 329
19 15 13 8 9 9 8 12 9 7 8 6 3 5 6 6 2 358 353 355 356 356 356 356 356 354 354 351 345 341 335 329 330 328 318 315 314 316 319 320 320 326 323
1 359 355 352 346 341 344 354 359 1 2 358 356 354 354 353 357 359 357 356 354 353 353 352 353 352 351 347 345 342 340 337 333 328 321 309 301 312 315 315 317 319 326
339 341 340 339 335 331 329 330 332 334 334 335 337 337 334 332 334 337 340 345 344 344 344 344 344 344 343 342 341 340 339 337 333 331 327 315 300 303 309 312 316 320 319
331 332 332 331 328 321 325 327 326 326 328 329 329 330 327 319 320 326 325 324 329 334 337 338 340 340 342 345 344 343 340 338 331 329 326 319 305 302 302 307 309 313 320
324 324 328 330 330 326 322 322 321 321 322 323 324 325 325 321 320 321 323 314 312 317 324 330 336 335 334 334 336 337 335 335 333 330 326 318 314 306 308 309 313 320 328
324 328 327 322 316 315 314 314 313 313 313 313 313 313 314 315 316 316 316 315 316 307 305 313 321 326 329 328 327 329 328 329 329 332 323 315 314 312 310 313 314 309 312
328 327 326 325 324 322 319 318 319 319 318 318 317 316 315 312 308 306 305 304 305 304 286 287 302 311 321 322 325 325 324 324 326 327 323 316 310 308 311 312 314 317 320
328 328 328 327 325 324 325 325 324 323 321 320 319 319 317 315 313 311 306 299 298 298 306 280 277 297 309 317 325 327 326 328 328 327 325 324 322 315 304 307 306 310 317
Wind_Speed_850mb
74 74 70 60 55 35 20 16 3 17 33 40 41 38 42 44 43 58 67 90 63 76 90 93 91 92 82 81 81 76 74 71 67 68 59 54 52 50 51 48 54 51 47
77 77 75 72 66 58 43 31 40 31 25 35 33 32 23 29 43 47 49 61 79 70 71 85 76 76 78 86 79 79 77 73 75 76 72 65 63 64 56 54 53 54 57
76 80 83 88 75 72 70 58 57 59 65 65 65 62 52 37 26 36 39 46 50 59 82 69 78 80 86 80 71 79 84 85 80 75 78 57 74 56 52 43 52 54 58
74 77 83 87 87 75 72 74 76 75 78 83 75 73 73 73 72 62 40 19 39 21 37 26 40 42 64 60 69 65 72 63 55 56 69 76 65 54 47 50 56 59 66
72 74 72 73 79 83 82 75 80 85 93 93 94 89 80 69 70 68 55 45 15 31 36 30 25 20 21 23 29 24 33 42 34 50 41 47 41 35 37 43 55 65 64
72 72 70 71 70 74 78 79 85 88 92 96 100 94 91 83 71 62 59 58 50 36 39 38 32 22 19 34 22 11 4 10 13 22 29 31 36 42 49 44 44 48 56
67 70 71 72 74 78 80 82 85 85 83 83 85 84 83 75 66 65 54 53 50 41 40 39 36 30 28 24 24 23 16 18 17 15 16 23 26 31 39 43 43 47 48
63 68 71 72 74 76 76 80 83 83 84 77 76 76 73 73 60 54 63 58 44 41 41 40 36 34 34 30 28 16 19 19 17 15 14 17 20 24 29 35 41 49 53
59 63 68 70 72 73 78 79 78 77 76 74 70 70 70 69 64 67 61 54 48 48 47 44 43 40 35 27 23 25 25 22 20 19 20 21 22 25 27 30 34 40 41
52 56 60 64 67 69 68 68 67 70 71 69 70 68 68 69 65 61 58 51 47 47 45 46 47 42 38 35 31 29 25 23 18 13 16 20 22 24 25 26 28 30 32
41 45 50 55 60 62 63 63 62 62 62 66 68 69 69 66 62 56 51 48 50 47 46 45 45 45 40 35 30 28 26 24 22 21 20 20 20 22 24 25 26 27 28
35 40 45 49 52 53 53 56 58 62 64 69 72 74 75 71 61 57 49 46 42 41 43 41 41 39 38 39 36 32 27 24 23 22 23 24 24 24 23 26 27 29 30
30 36 41 44 48 51 54 56 58 61 69 73 76 77 73 71 67 62 56 50 41 38 36 36 34 35 35 34 35 37 37 36 35 32 31 30 29 32 31 27 27 29 29
31 36 39 43 45 48 49 52 53 55 59 63 68 66 64 64 66 65 63 60 55 51 45 37 31 29 28 28 28 31 32 32 33 32 31 29 29 28 29 31 28 25 25
28 30 33 36 39 41 45 48 49 47 47 53 59 60 62 62 59 57 62 61 58 55 51 48 50 51 48 44 40 37 33 31 33 33 35 37 35 33 30 30 30 30 29
26 30 34 36 38 41 41 38 35 30 31 37 40 44 44 42 47 54 60 57 58 58 56 55 55 55 56 56 54 48 41 38 35 35 35 35 35 37 38 34 29 32 33
25 26 27 28 32 36 38 39 38 29 26 30 34 38 39 36 34 32 41 50 53 53 54 53 52 52 52 50 50 49 48 42 37 35 34 34 36 33 35 35 33 30 29
19 20 20 22 27 31 33 33 31 34 38 39 39 43 44 44 41 38 45 50 55 57 56 55 54 56 56 53 50 49 48 46 44 39 36 33 33 34 34 32 31 31 35
15 20 22 24 25 26 27 28 30 33 34 35 37 37 39 38 39 40 44 48 50 50 49 49 52 54 55 55 53 48 46 45 46 45 38 33 30 30 27 28 29 27 28
16 23 29 32 30 26 23 24 25 25 24 25 28 31 33 33 35 37 36 39 41 44 46 47 50 53 56 56 56 53 49 45 41 38 33 29 25 24 26 29 31 32 28
23 30 37 38 33 30 28 27 29 30 30 30 29 28 28 29 28 29 32 34 33 35 36 39 44 48 51 53 52 53 52 49 44 42 37 29 25 23 23 24 27 28 30
32 39 42 38 32 32 34 35 36 37 38 41 45 44 38 35 35 36 35 34 34 34 33 36 40 40 43 46 47 52 54 51 45 43 37 31 26 24 26 27 28 29 32
36 39 36 31 31 33 33 35 37 40 43 44 44 45 43 42 44 45 45 41 35 32 34 36 39 37 39 40 44 50 53 51 49 48 40 30 25 24 24 26 29 28 29
36 37 36 36 38 39 41 43 45 45 47 48 47 47 47 46 46 46 43 40 38 33 32 37 36 36 37 38 41 47 46 46 47 43 38 32 27 25 25 25 26 28 29
37 37 35 38 40 41 41 42 43 44 45 46 48 49 49 48 49 49 48 47 46 44 40 34 34 36 36 37 40 41 41 44 43 42 33 28 28 27 27 26 25 23 23
37 37 38 39 39 40 43 45 46 46 47 48 47 46 46 46 46 46 47 47 44 40 37 37 31 33 36 37 37 37 39 38 41 38 32 27 28 27 26 26 22 20 18
Wind_Direction_850mb
24 25 23 23 29 33 9 11 84 205 217 213 218 232 237 241 237 229 218 226 236 242 237 231 230 231 235 235 234 236 235 239 244 247 240 247 246 261 277 270 253 247 249
31 33 32 32 39 50 53 59 59 96 188 191 171 140 155 192 200 172 178 204 223 228 222 233 229 232 235 237 236 239 239 235 236 242 244 246 255 270 277 257 258 254 260
32 35 39 41 37 49 52 58 65 68 96 107 110 104 98 102 138 171 153 152 176 205 210 208 222 226 227 227 235 238 237 238 239 238 247 251 252 253 263 258 254 257 264
35 37 39 43 50 43 47 62 65 67 77 93 96 95 93 93 89 84 85 101 71 91 177 149 179 204 226 227 224 220 230 229 225 223 236 244 251 258 259 262 264 264 268
40 44 45 45 49 56 53 54 61 68 75 78 83 83 83 83 80 82 89 92 55 39 49 77 85 89 141 196 215 247 261 238 219 231 232 222 233 250 243 258 258 264 274
43 44 47 52 57 58 61 56 58 62 65 69 79 82 81 78 77 80 82 80 81 69 64 70 75 62 105 82 81 172 265 262 200 230 238 254 251 257 258 248 256 262 270
43 45 47 49 50 53 55 57 56 59 63 65 69 71 73 78 83 86 88 76 68 68 63 55 49 49 32 27 27 27 354 2 351 328 281 283 271 271 269 266 268 267 262
41 43 45 47 50 50 52 55 55 56 58 59 64 70 72 73 76 80 79 80 83 76 75 71 71 71 64 51 42 27 27 20 358 339 317 298 288 279 284 288 283 276 271
35 38 41 43 45 46 47 47 50 52 55 57 58 62 67 65 61 60 64 67 64 59 55 54 52 52 54 54 43 44 38 34 25 11 3 355 340 329 314 298 293 290 286
30 33 37 39 41 46 48 49 50 52 55 55 56 55 57 57 54 54 53 55 53 49 44 42 44 41 34 32 29 28 26 21 21 11 359 350 347 341 327 322 318 313 308
27 31 35 39 41 40 44 45 47 50 51 50 52 53 50 50 48 49 48 44 41 36 34 29 31 26 22 18 14 12 13 3 349 349 347 345 343 335 330 330 325 323 314
28 30 35 35 37 36 35 36 37 39 40 41 40 40 40 42 43 47 48 43 38 31 29 20 18 10 6 2 4 7 1 353 349 348 343 342 338 334 335 332 330 325 316
28 32 33 33 32 31 30 30 30 30 29 29 31 34 36 31 33 34 33 37 36 32 28 17 7 0 358 354 355 350 347 345 344 343 346 343 341 334 332 329 326 324 317
27 28 28 29 27 25 25 28 26 25 22 22 24 28 29 27 22 23 21 17 18 16 18 15 6 3 1 357 351 351 351 350 346 343 339 335 330 324 326 326 323 319 317
33 27 22 19 19 22 20 17 19 21 19 17 18 16 18 19 18 18 16 16 11 5 358 353 355 357 358 358 357 355 350 343 341 339 334 334 333 330 333 329 325 322 323
28 23 18 14 13 13 14 17 18 23 12 9 11 12 12 16 11 11 8 6 2 1 355 357 355 353 352 352 351 350 347 342 339 338 337 334 332 335 332 329 330 326 323
19 19 17 14 13 11 11 12 10 14 8 3 4 7 12 10 6 10 8 8 4 0 5 5 1 357 352 349 344 342 341 337 332 326 326 330 332 331 330 332 333 331 325
18 21 18 9 9 13 16 14 9 9 7 5 5 2 359 358 359 353 350 350 355 359 2 0 358 355 353 349 343 338 332 330 329 325 323 324 324 324 328 332 332 331 329
19 15 13 8 9 9 8 12 9 7 8 6 3 5 6 6 2 358 353 355 356 356 356 356 356 354 354 351 345 341 335 329 330 328 318 315 314 316 319 320 320 326 323
1 359 355 352 346 341 344 354 359 1 2 358 356 354 354 353 357 359 357 356 354 353 353 352 353 352 351 347 345 342 340 337 333 328 321 309 301 312 315 315 317 319 326
339 341 340 339 335 331 329 330 332 334 334 335 337 337 334 332 334 337 340 345 344 344 344 344 344 344 343 342 341 340 339 337 333 331 327 315 300 303 309 312 316 320 319
331 332 332 331 328 321 325 327 326 326 328 329 329 330 327 319 320 326 325 324 329 334 337 338 340 340 342 345 344 343 340 338 331 329 326 319 305 302 302 307 309 313 320
324 324 328 330 330 326 322 322 321 321 322 323 324 325 325 321 320 321 323 314 312 317 324 330 336 335 334 334 336 337 335 335 333 330 326 318 314 306 308 309 313 320 328
324 328 327 322 316 315 314 314 313 313 313 313 313 313 314 315 316 316 316 315 316 307 305 313 321 326 329 328 327 329 328 329 329 332 323 315 314 312 310 313 314 309 312
328 327 326 325 324 322 319 318 319 319 318 318 317 316 315 312 308 306 305 304 305 304 286 287 302 311 321 322 325 325 324 324 326 327 323 316 310 308 311 312 314 317 320
328 328 328 327 325 324 325 325 324 323 321 320 319 319 317 315 313 311 306 299 298 298 306 280 277 297 309 317 325 327 326 328 328 327 325 324 322 315 304 307 306 310 317